Ely, NV

9:28 AM PST on February 27, 2017 (GMT -0800)
Ely

Weather History for KELY - December, 2013

Change the Weather History Date:

Saturday, December 7, 2013

  Actual Average Record
Temperature  
Mean Temperature 16 °F 26 °F  
Max Temperature 26 °F 40 °F 63 °F (1981)
Min Temperature 6 °F 12 °F -21 °F (1951)
Degree Days  
Heating Degree Days 49 39  
Month to date heating degree days 340 268  
Since 1 July heating degree days 2105 2136  
Cooling Degree Days 0 0  
Month to date cooling degree days 0 0  
Year to date cooling degree days 387 218  
Moisture  
Dew Point 12 °F    
Average Humidity 70    
Maximum Humidity 80    
Minimum Humidity 60    
Precipitation  
Precipitation 0.02 in 0.01 in 0.43 in (2007)
Month to date precipitation 0.47 0.11  
Year to date precipitation 8.02 9.28  
Snow  
Snow 0.80 in 0.20 in 3.50 in (2007)
Month to date snowfall 7.5 1.4  
Since 1 July snowfall 20.4 10.9  
Snow Depth 5.00 in    
Sea Level Pressure  
Sea Level Pressure 29.73 in    
Wind  
Wind Speed 11 mph (SW)    
Max Wind Speed 32 mph    
Max Gust Speed 37 mph    
Visibility 7 miles    
Events Fog , Snow    
T = Trace of Precipitation, MM = Missing Value Source: NWS Daily Summary

Daily Weather History Graph

Daily Weather History Graph

Search for Another Location

Airport or City:

Trip Planner

Search our weather history database for the weather conditions in past years. The results will help you decide how hot, cold, wet, or windy it might be!

Date:

Astronomy

Dec. 07, 2013 Rise Set
Actual Time 6:45 AM PST 4:15 PM PST
Civil Twilight 6:16 AM PST 4:45 PM PST
Nautical Twilight 5:42 AM PST 5:19 PM PST
Astronomical Twilight 5:10 AM PST 5:51 PM PST
Moon 10:34 AM PST (12/7) 10:00 PM PST (12/7)
Length of Visible Light 10h 29m
Length of Day
9h 30m
Waxing Crescent, 30% of the Moon is Illuminated
Dec 7
Waxing Crescent
Dec 9
First Quarter
Dec 17
Full
Dec 25
Last Quarter
Jan 1
New

Hourly Weather History & Observations

Time (PST) Temp. Windchill Dew Point Humidity Pressure Visibility Wind Dir Wind Speed Gust Speed Precip Events Conditions
12:53 AM 16.0 °F 0.6 °F 10.9 °F 81% 29.88 in 10.0 mi SSW 16.1 mph - N/A   Clear
1:53 AM 16.0 °F 1.7 °F 10.0 °F 77% 29.84 in 10.0 mi South 13.8 mph - N/A   Scattered Clouds
2:53 AM 17.1 °F 0.1 °F 10.9 °F 77% 29.80 in 10.0 mi South 20.7 mph - N/A   Overcast
3:53 AM 19.0 °F 1.3 °F 12.0 °F 74% 29.76 in 10.0 mi SSE 25.3 mph 35.7 mph 0.00 in   Overcast
4:53 AM 19.0 °F 4.0 °F 12.0 °F 74% 29.73 in 10.0 mi South 17.3 mph 26.5 mph 0.00 in   Overcast
5:16 AM 19.0 °F 2.7 °F 12.9 °F 77% 29.63 in 7.0 mi SSE 20.7 mph 27.6 mph 0.00 in Snow Light Snow
5:53 AM 19.0 °F 3.6 °F 14.0 °F 81% 29.73 in 6.0 mi SSE 18.4 mph 27.6 mph 0.00 in Snow Light Snow
6:08 AM 19.0 °F 2.4 °F 14.0 °F 81% 29.62 in 2.0 mi SE 21.9 mph 31.1 mph 0.00 in Snow Light Snow
6:24 AM 19.0 °F 4.0 °F 14.0 °F 81% 29.62 in 4.0 mi SSE 17.3 mph 26.5 mph 0.00 in Snow Light Snow
6:53 AM 19.9 °F 9.3 °F 12.9 °F 74% 29.74 in 9.0 mi South 9.2 mph - 0.00 in   Overcast
7:08 AM 19.9 °F 6.7 °F 12.9 °F 74% 29.63 in 6.0 mi SSE 13.8 mph 18.4 mph 0.00 in Snow Light Snow
7:49 AM 19.4 °F 5.5 °F 12.2 °F 74% 29.63 in 10.0 mi SSE 15.0 mph - 0.00 in   Overcast
7:53 AM 19.9 °F 9.3 °F 12.9 °F 74% 29.74 in 10.0 mi South 9.2 mph 20.7 mph 0.00 in   Overcast
8:44 AM 21.0 °F 5.7 °F 14.0 °F 74% 29.63 in 9.0 mi SSE 19.6 mph 26.5 mph 0.00 in   Overcast
8:53 AM 21.0 °F 5.4 °F 14.0 °F 74% 29.73 in 10.0 mi SSE 20.7 mph 27.6 mph 0.00 in   Overcast
9:53 AM 21.9 °F 8.2 °F 15.1 °F 75% 29.73 in 10.0 mi SSE 16.1 mph 24.2 mph 0.00 in   Overcast
10:07 AM 23.0 °F 9.6 °F 15.1 °F 72% 29.64 in 10.0 mi SSE 16.1 mph - 0.00 in   Overcast
10:46 AM 21.9 °F 10.4 °F 14.0 °F 72% 29.63 in 10.0 mi SSW 11.5 mph - 0.00 in   Overcast
10:53 AM 21.9 °F 9.8 °F 15.1 °F 75% 29.73 in 10.0 mi SSW 12.7 mph - 0.00 in   Overcast
11:12 AM 23.0 °F 13.1 °F 12.9 °F 65% 29.62 in 10.0 mi SSW 9.2 mph - N/A   Mostly Cloudy
11:53 AM 24.1 °F 14.4 °F 12.0 °F 60% 29.69 in 10.0 mi SSW 9.2 mph - N/A   Overcast
12:33 PM 23.0 °F 11.1 °F 14.0 °F 68% 29.60 in 9.0 mi SSW 12.7 mph - N/A   Overcast
12:43 PM 24.1 °F 13.1 °F 14.0 °F 65% 29.59 in 10.0 mi South 11.5 mph - N/A   Mostly Cloudy
12:53 PM 24.1 °F 13.7 °F 12.9 °F 62% 29.69 in 10.0 mi SSW 10.4 mph - N/A   Mostly Cloudy
1:27 PM 21.9 °F 6.9 °F 12.9 °F 68% 29.61 in 1.0 mi WNW 19.6 mph 26.5 mph 0.00 in Snow Light Snow
1:30 PM 19.0 °F 3.2 °F 15.1 °F 85% 29.61 in 0.2 mi West 19.6 mph 26.5 mph 0.00 in Fog , Snow Snow
1:36 PM 18.0 °F 5.4 °F 16.0 °F 92% 29.62 in 0.2 mi WNW 11.5 mph 25.3 mph 0.01 in Fog , Snow Snow
1:48 PM 19.4 °F 7.9 °F 15.8 °F 86% 29.62 in 1.0 mi West 10.4 mph - 0.01 in Snow Light Snow
1:49 PM 19.0 °F 7.5 °F 15.1 °F 85% 29.73 in 1.0 mi West 10.4 mph - 0.01 in Snow Light Snow
2:05 PM 19.0 °F 10.0 °F 14.0 °F 81% 29.62 in 2.0 mi West 6.9 mph - 0.00 in Snow Light Snow
2:09 PM 19.9 °F 13.4 °F 15.1 °F 81% 29.62 in 5.0 mi WNW 4.6 mph - 0.00 in Snow Light Snow
2:53 PM 19.0 °F 9.0 °F 14.0 °F 81% 29.75 in 10.0 mi ESE 8.1 mph - 0.00 in   Overcast
3:07 PM 19.9 °F 14.9 °F 12.9 °F 74% 29.64 in 10.0 mi Variable 3.5 mph - N/A   Overcast
3:22 PM 19.9 °F 9.3 °F 14.0 °F 78% 29.65 in 1.2 mi NW 9.2 mph - 0.00 in Snow Light Snow
3:24 PM 19.9 °F 7.3 °F 14.0 °F 78% 29.65 in 0.8 mi NW 12.7 mph - 0.00 in Snow Light Snow
3:33 PM 18.0 °F 6.1 °F 15.1 °F 88% 29.67 in 0.2 mi North 10.4 mph - 0.01 in Fog , Snow Snow
3:38 PM 18.0 °F 5.4 °F 16.0 °F 92% 29.67 in 0.5 mi North 11.5 mph - 0.01 in Fog , Snow Light Snow
3:44 PM 18.0 °F 6.9 °F 15.1 °F 88% 29.67 in 1.5 mi North 9.2 mph - 0.01 in Snow Light Snow
3:48 PM 17.6 °F 6.4 °F 14.0 °F 86% 29.68 in 3.0 mi NNW 9.2 mph - 0.01 in Snow Light Snow
3:53 PM 18.0 °F 5.4 °F 12.9 °F 81% 29.79 in 8.0 mi NW 11.5 mph - 0.01 in Snow Light Snow
4:53 PM 15.1 °F 7.7 °F 6.1 °F 68% 29.85 in 10.0 mi WNW 4.6 mph - 0.00 in   Overcast
5:53 PM 10.9 °F 1.4 °F -0.0 °F 61% 29.90 in 10.0 mi West 5.8 mph - N/A   Partly Cloudy
6:53 PM 8.1 °F -7.7 °F -0.9 °F 67% 29.94 in 10.0 mi WNW 12.7 mph - N/A   Scattered Clouds
7:53 PM 10.9 °F 0.2 °F 5.0 °F 77% 29.95 in 9.0 mi WNW 6.9 mph - 0.00 in   Overcast
8:46 PM 8.1 °F -4.3 °F 3.0 °F 80% 29.82 in 10.0 mi WNW 8.1 mph - N/A   Mostly Cloudy
8:53 PM 10.0 °F -1.9 °F 3.0 °F 73% 29.96 in 10.0 mi WNW 8.1 mph - N/A   Mostly Cloudy
9:53 PM 10.9 °F - 3.0 °F 70% 29.98 in 10.0 mi Calm Calm - N/A   Overcast
10:53 PM 7.0 °F - 1.0 °F 77% 30.02 in 10.0 mi Calm Calm - N/A   Scattered Clouds
11:53 PM 9.0 °F 0.6 °F -0.0 °F 67% 30.04 in 10.0 mi NW 4.6 mph - N/A   Overcast